Denton, TX

7:38 PM CDT on October 18, 2019 (GMT -0500)
Denton Municipal

Weather History for KDTO - September, 2019

Change the Weather History Date:

Monday, September 23, 2019

  Actual Average Record
Temperature  
Mean Temperature 86 °F -  
Max Temperature 95 °F 84 °F 100 °F (2005)
Min Temperature 78 °F 59 °F 44 °F (1999)
Cooling Degree Days 20    
Growing Degree Days 36 (Base 50)    
Moisture  
Dew Point 72 °F    
Average Humidity 70    
Maximum Humidity 82    
Minimum Humidity 47    
Precipitation  
Precipitation 0.09 in - - ()
Sea Level Pressure  
Sea Level Pressure 29.97 in    
Wind  
Wind Speed 8 mph (ESE)    
Max Wind Speed 14 mph    
Max Gust Speed 26 mph    
Visibility 10 miles    
Events Rain , Thunderstorm    
Averages and records for this station are not official NWS values.
T = Trace of Precipitation, MM = Missing Value Source: NWS Daily Summary

Daily Weather History Graph

Daily Weather History Graph

Search for Another Location

Airport or City:

Astronomy

Sep. 23, 2019 Rise Set
Actual Time 7:17 AM CDT 7:24 PM CDT
Civil Twilight 6:52 AM CDT 7:49 PM CDT
Nautical Twilight 6:23 AM CDT 8:17 PM CDT
Astronomical Twilight 5:54 AM CDT 8:46 PM CDT
Moon 1:21 AM CDT (9/23) 4:00 PM CDT (9/23)
Length of Visible Light 12h 56m
Length of Day
12h 06m
Waning Crescent, 33% of the Moon is Illuminated
Sep 23
Waning Crescent
Sep 28
New
Oct 5
First Quarter
Oct 13
Full
Oct 21
Last Quarter

Hourly Weather History & Observations

Time (CDT) Temp. Heat Index Dew Point Humidity Pressure Visibility Wind Dir Wind Speed Gust Speed Precip Events Conditions
12:53 AM 82.9 °F 85.8 °F 68.0 °F 60% 29.95 in 10.0 mi SSE 11.5 mph - N/A   Partly Cloudy
1:53 AM 82.0 °F 85.9 °F 70.0 °F 67% 29.96 in 10.0 mi South 10.4 mph - N/A   Scattered Clouds
2:53 AM 82.0 °F 86.3 °F 71.1 °F 69% 29.96 in 10.0 mi South 9.2 mph - N/A   Mostly Cloudy
3:53 AM 81.0 °F 84.9 °F 71.1 °F 72% 29.97 in 10.0 mi SSW 3.5 mph - N/A   Overcast
4:53 AM 80.1 °F 83.6 °F 71.1 °F 74% 29.98 in 10.0 mi South 3.5 mph - N/A   Overcast
5:53 AM 80.1 °F 83.8 °F 72.0 °F 76% 29.99 in 10.0 mi ENE 3.5 mph - N/A   Overcast
6:19 AM 80.1 °F 83.8 °F 72.0 °F 76% 30.03 in 10.0 mi East 3.5 mph - N/A   Overcast
6:39 AM 79.0 °F - 72.0 °F 79% 30.03 in 10.0 mi ESE 3.5 mph - N/A   Overcast
6:53 AM 79.0 °F - 72.0 °F 79% 30.00 in 10.0 mi East 3.5 mph - N/A   Overcast
7:53 AM 79.0 °F - 72.0 °F 79% 30.01 in 10.0 mi SE 8.1 mph - N/A   Overcast
8:53 AM 80.1 °F 83.8 °F 72.0 °F 76% 30.03 in 10.0 mi SSE 12.7 mph - N/A   Overcast
9:53 AM 81.0 °F 85.2 °F 72.0 °F 74% 30.04 in 10.0 mi South 6.9 mph - N/A   Partly Cloudy
10:53 AM 84.0 °F 89.6 °F 72.0 °F 67% 30.03 in 10.0 mi South 11.5 mph - N/A   Scattered Clouds
11:53 AM 88.0 °F 94.7 °F 72.0 °F 59% 30.02 in 10.0 mi South 8.1 mph - N/A   Clear
12:53 PM 91.0 °F 98.2 °F 72.0 °F 53% 30.00 in 10.0 mi SSW 11.5 mph - N/A   Scattered Clouds
1:53 PM 93.0 °F 100.7 °F 72.0 °F 50% 29.97 in 10.0 mi North - - N/A   Scattered Clouds
2:53 PM 93.0 °F 100.7 °F 72.0 °F 50% 29.94 in 10.0 mi WNW 5.8 mph - N/A   Mostly Cloudy
3:53 PM 93.0 °F 100.7 °F 72.0 °F 50% 29.92 in 10.0 mi WNW 6.9 mph - N/A   Scattered Clouds
4:53 PM 93.9 °F 100.8 °F 71.1 °F 47% 29.91 in 10.0 mi NE 9.2 mph - N/A   Mostly Cloudy
5:30 PM 87.1 °F 95.4 °F 73.9 °F 65% 29.93 in 5.0 mi Variable 5.8 mph - 0.07 in Rain Heavy Rain
5:53 PM 82.0 °F 88.6 °F 75.0 °F 79% 29.91 in 10.0 mi NE 13.8 mph 26.5 mph 0.09 in Rain Light Rain
6:53 PM 80.1 °F 83.6 °F 71.1 °F 74% 29.93 in 10.0 mi NE 10.4 mph - 0.00 in Rain , Thunderstorm Light Rain
7:07 PM 80.1 °F 83.8 °F 72.0 °F 76% 29.95 in 10.0 mi ENE 11.5 mph 19.6 mph 0.00 in Rain Light Rain
7:53 PM 79.0 °F - 73.0 °F 82% 29.92 in 10.0 mi NE 4.6 mph - 0.00 in   Overcast
8:53 PM 79.0 °F - 72.0 °F 79% 29.93 in 10.0 mi ENE 6.9 mph - N/A   Clear
9:53 PM 78.1 °F - 72.0 °F 81% 29.93 in 10.0 mi East 5.8 mph - N/A   Clear
10:53 PM 79.0 °F - 72.0 °F 79% 29.94 in 10.0 mi East 5.8 mph - N/A   Clear
11:53 PM 80.1 °F 83.8 °F 72.0 °F 76% 29.93 in 10.0 mi ESE 5.8 mph - N/A   Clear